sat.trackr.live / text

‹ back to catalog

ONEWEB-0631

NORAD 55171 · 2023-004AH

PAYLOAD ACTIVE UNKNOWN

§ Identity

Operator
Country
UK
Launch date
2023-01-10
Launch site
AFETR
Launch vehicle
Mass (kg)
RCS (m²)

Purposes: comms

External: N2YO · Heavens-Above · Gunter

§ Orbital elements

Epoch: 2026-05-25T02:39:42.306912Z

Period
109.20 min
Inclination
87.9168°
Eccentricity
0.0001714
Mean motion
13.18687476 rev/d
Perigee alt
1,188.4 km
Apogee alt
1,191.0 km
Semi-major
7,567.9 km
B*
8.1237e-5
RAAN
340.0278°
Arg perigee
105.0829°
Mean anomaly
255.0493°
Rev number
16,663

§ Raw data

ONEWEB-06311 55171U 23004AH  26145.11090633  .00000045  00000+0  81237-4 0  99922 55171  87.9168 340.0278 0001714 105.0829 255.0493 13.18687476166633

JSON: /api/v1/satellites/55171 · /tle

For live sub-satellite position, see the globe view (requires WebGL).

§ Visibility from observer

Set your observer location to see the next 7 days of passes ≥ 10°. The values pass through the URL so the page stays shareable.

No JS? Fill the form by hand. The geolocation button needs JavaScript.